| time (UTC) | temp F | wind direction | speed knots | gust knots | rain 1hr in | rain 24hr in | rain mn in | humidity % | barometer mb |
| 20260504050238 | 53 | 200 | 4.3 | 13.9 | 0.00 | 0.02 | 0.00 | 61 | 1006.9 |
| 20260504044757 | 53 | 204 | 5.2 | 13.0 | 0.00 | 0.02 | 0.00 | 62 | 1006.9 |
| 20260504044606 | 52 | 249 | 5.2 | 0.0 | 0.00 | 0.00 | 0.00 | 62 | 1007.1 |
| 20260504043253 | 53 | 221 | 5.2 | 10.4 | 0.00 | 0.02 | 0.00 | 62 | 1006.9 |
| 20260504043035 | 52 | 215 | 4.3 | 0.0 | 0.00 | 0.00 | 0.00 | 62 | 1007.1 |
| 20260504041745 | 53 | 188 | 5.2 | 10.4 | 0.00 | 0.02 | 0.00 | 62 | 1006.8 |
| 20260504041554 | 52 | 177 | 4.3 | 0.0 | 0.00 | 0.00 | 0.00 | 62 | 1007.0 |
| 20260504040222 | 53 | 199 | 6.1 | 11.3 | 0.00 | 0.02 | 0.00 | 62 | 1006.9 |
| 20260504040114 | 52 | 215 | 4.3 | 0.0 | 0.00 | 0.00 | 0.00 | 62 | 1007.2 |
| 20260504034737 | 53 | 229 | 3.5 | 10.4 | 0.00 | 0.02 | 0.00 | 63 | 1006.8 |
| 20260504034550 | 52 | 216 | 4.3 | 0.0 | 0.00 | 0.00 | 0.00 | 63 | 1007.0 |
| 20260504033300 | 53 | 223 | 2.6 | 13.0 | 0.00 | 0.02 | 0.02 | 63 | 1006.7 |
| 20260504033050 | 52 | 199 | 5.2 | 0.0 | 0.00 | 0.00 | 0.02 | 63 | 1007.0 |
| 20260504031726 | 52 | 215 | 4.3 | 8.7 | 0.00 | 0.02 | 0.02 | 65 | 1006.9 |
| 20260504031623 | 51 | 209 | 2.6 | 0.0 | 0.00 | 0.00 | 0.02 | 66 | 1007.1 |
| 20260504030238 | 52 | 230 | 4.3 | 10.4 | 0.00 | 0.02 | 0.02 | 68 | 1007.0 |
| 20260504030132 | 51 | 211 | 3.5 | 0.0 | 0.00 | 0.00 | 0.02 | 68 | 1007.2 |
| 20260504024733 | 51 | 225 | 2.6 | 7.0 | 0.00 | 0.02 | 0.02 | 70 | 1007.0 |
| 20260504024536 | 50 | 217 | 1.7 | 0.0 | 0.00 | 0.00 | 0.02 | 71 | 1007.2 |
| 20260504023226 | 51 | 198 | 2.6 | 5.2 | 0.00 | 0.02 | 0.02 | 74 | 1007.2 |
| 20260504023112 | 50 | 194 | 1.7 | 0.0 | 0.00 | 0.00 | 0.02 | 74 | 1007.4 |
| 20260504021740 | 49 | 215 | 3.5 | 8.7 | 0.00 | 0.02 | 0.02 | 80 | 1007.3 |
| 20260504021542 | 49 | 210 | 1.7 | 0.0 | 0.00 | 0.00 | 0.02 | 80 | 1007.5 |
| 20260504020234 | 49 | 219 | 0.9 | 2.6 | 0.00 | 0.02 | 0.02 | 85 | 1007.3 |
| 20260504020005 | 48 | 219 | 0.9 | 0.0 | 0.00 | 0.00 | 0.02 | 86 | 1007.7 |
| 20260504014733 | 48 | 220 | 0.9 | 6.1 | 0.00 | 0.02 | 0.02 | 88 | 1007.4 |
| 20260504014608 | 48 | 222 | 0.9 | 0.0 | 0.00 | 0.00 | 0.02 | 88 | 1007.6 |
| 20260504013220 | 49 | 194 | 0.0 | 2.6 | 0.00 | 0.02 | 0.02 | 88 | 1007.5 |
| 20260504013014 | 48 | 194 | 0.0 | 0.0 | 0.00 | 0.00 | 0.02 | 88 | 1007.8 |
| 20260504011722 | 49 | 194 | 0.0 | 4.3 | 0.00 | 0.02 | 0.02 | 88 | 1007.5 |
| 20260504011502 | 48 | 194 | 1.7 | 0.0 | 0.00 | 0.00 | 0.02 | 89 | 1007.8 |
| 20260504010258 | 48 | 192 | 0.9 | 6.1 | 0.01 | 0.02 | 0.02 | 91 | 1007.5 |
| 20260504010058 | 48 | 194 | 1.7 | 0.0 | 0.00 | 0.00 | 0.02 | 91 | 1007.9 |
| 20260504004738 | 48 | 273 | 0.0 | 0.0 | 0.02 | 0.02 | 0.02 | 91 | 1008.0 |
| 20260504004541 | 48 | 273 | 0.0 | 0.0 | 0.00 | 0.00 | 0.02 | 91 | 1008.1 |
| 20260504003228 | 49 | 275 | 0.0 | 0.0 | 0.02 | 0.02 | 0.02 | 90 | 1007.9 |
| 20260504003111 | 48 | 275 | 0.0 | 0.0 | 0.00 | 0.00 | 0.02 | 90 | 1008.2 |
| 20260504001727 | 49 | 275 | 0.0 | 0.0 | 0.02 | 0.02 | 0.02 | 88 | 1008.1 |
| 20260504001608 | 48 | 275 | 0.0 | 0.0 | 0.00 | 0.00 | 0.02 | 88 | 1008.4 |
| 20260504000220 | 49 | 275 | 0.9 | 7.8 | 0.01 | 0.01 | 0.01 | 85 | 1008.3 |
| 20260503234722 | 50 | 252 | 1.7 | 5.2 | 0.00 | 0.00 | 0.00 | 82 | 1008.2 |
| 20260503234551 | 50 | 251 | 1.7 | 0.0 | 0.00 | 0.00 | 0.00 | 81 | 1008.4 |
| 20260503233229 | 51 | 259 | 0.9 | 12.2 | 0.00 | 0.00 | 0.00 | 78 | 1008.1 |
| 20260503233036 | 51 | 259 | 6.1 | 0.0 | 0.00 | 0.00 | 0.00 | 77 | 1008.4 |
| 20260503231747 | 52 | 231 | 6.1 | 18.2 | 0.00 | 0.00 | 0.00 | 72 | 1008.1 |
| 20260503231552 | 52 | 286 | 6.1 | 0.0 | 0.00 | 0.00 | 0.00 | 72 | 1008.4 |
| 20260503230224 | 53 | 232 | 3.5 | 13.9 | 0.00 | 0.00 | 0.00 | 65 | 1007.8 |
| 20260503230131 | 53 | 235 | 5.2 | 0.0 | 0.00 | 0.00 | 0.00 | 65 | 1008.1 |
| 20260503224724 | 53 | 255 | 5.2 | 15.6 | 0.00 | 0.00 | 0.00 | 63 | 1007.7 |
| 20260503224549 | 53 | 215 | 6.1 | 0.0 | 0.00 | 0.00 | 0.00 | 63 | 1007.8 |
| 20260503223228 | 53 | 239 | 5.2 | 17.4 | 0.00 | 0.00 | 0.00 | 61 | 1007.4 |
| 20260503223015 | 53 | 232 | 6.1 | 0.0 | 0.00 | 0.00 | 0.00 | 61 | 1007.7 |
| 20260503221735 | 54 | 175 | 6.1 | 14.8 | 0.00 | 0.00 | 0.00 | 60 | 1007.4 |
| 20260503221615 | 53 | 230 | 6.1 | 0.0 | 0.00 | 0.00 | 0.00 | 60 | 1007.6 |
| 20260503220228 | 54 | 211 | 4.3 | 13.0 | 0.00 | 0.00 | 0.00 | 59 | 1007.4 |
| 20260503220105 | 53 | 227 | 5.2 | 0.0 | 0.00 | 0.00 | 0.00 | 59 | 1007.6 |
| 20260503214733 | 54 | 229 | 4.3 | 11.3 | 0.00 | 0.00 | 0.00 | 58 | 1007.4 |
| 20260503214559 | 53 | 239 | 4.3 | 0.0 | 0.00 | 0.00 | 0.00 | 58 | 1007.6 |
| 20260503213229 | 54 | 205 | 8.7 | 15.6 | 0.00 | 0.00 | 0.00 | 57 | 1007.3 |
| 20260503213009 | 54 | 259 | 5.2 | 0.0 | 0.00 | 0.00 | 0.00 | 57 | 1007.6 |
| 20260503211729 | 54 | 227 | 4.3 | 15.6 | 0.00 | 0.00 | 0.00 | 58 | 1007.2 |
| 20260503211607 | 54 | 215 | 5.2 | 0.0 | 0.00 | 0.00 | 0.00 | 58 | 1007.5 |
| 20260503210231 | 55 | 215 | 4.3 | 14.8 | 0.00 | 0.00 | 0.00 | 55 | 1007.6 |
| 20260503210048 | 54 | 267 | 7.0 | 0.0 | 0.00 | 0.00 | 0.00 | 55 | 1008.0 |
| 20260503204756 | 55 | 223 | 6.1 | 13.9 | 0.00 | 0.00 | 0.00 | 54 | 1007.5 |
| 20260503204605 | 55 | 240 | 5.2 | 0.0 | 0.00 | 0.00 | 0.00 | 54 | 1007.8 |
| 20260503203233 | 56 | 214 | 5.2 | 13.0 | 0.00 | 0.00 | 0.00 | 52 | 1007.6 |
| 20260503203052 | 55 | 207 | 6.1 | 0.0 | 0.00 | 0.00 | 0.00 | 52 | 1007.9 |
| 20260503201725 | 56 | 249 | 8.7 | 14.8 | 0.00 | 0.00 | 0.00 | 50 | 1007.7 |
| 20260503201503 | 56 | 227 | 4.3 | 0.0 | 0.00 | 0.00 | 0.00 | 51 | 1008.0 |
| 20260503200235 | 57 | 238 | 12.2 | 20.0 | 0.00 | 0.00 | 0.00 | 49 | 1007.9 |
| 20260503200135 | 56 | 234 | 6.1 | 0.0 | 0.00 | 0.00 | 0.00 | 49 | 1008.2 |
| 20260503194733 | 57 | 239 | 7.0 | 20.0 | 0.00 | 0.00 | 0.00 | 49 | 1008.1 |
| 20260503194559 | 57 | 226 | 7.8 | 0.0 | 0.00 | 0.00 | 0.00 | 49 | 1008.4 |
| 20260503193221 | 56 | 240 | 12.2 | 16.5 | 0.00 | 0.00 | 0.00 | 51 | 1008.5 |
| 20260503193054 | 55 | 215 | 5.2 | 0.0 | 0.00 | 0.00 | 0.00 | 50 | 1008.8 |
| 20260503191727 | 55 | 238 | 7.8 | 20.9 | 0.00 | 0.00 | 0.00 | 48 | 1008.8 |
| 20260503191607 | 55 | 190 | 8.7 | 0.0 | 0.00 | 0.00 | 0.00 | 49 | 1009.2 |
| 20260503190224 | 55 | 274 | 13.0 | 18.2 | 0.00 | 0.00 | 0.00 | 48 | 1009.2 |
| 20260503190107 | 55 | 251 | 6.1 | 0.0 | 0.00 | 0.00 | 0.00 | 48 | 1009.5 |
| 20260503184727 | 56 | 244 | 8.7 | 17.4 | 0.00 | 0.00 | 0.00 | 47 | 1009.5 |
| 20260503184509 | 55 | 288 | 6.1 | 0.0 | 0.00 | 0.00 | 0.00 | 50 | 1009.8 |
| 20260503183222 | 54 | 233 | 10.4 | 18.2 | 0.00 | 0.00 | 0.00 | 51 | 1009.8 |
| 20260503183117 | 54 | 212 | 8.7 | 0.0 | 0.00 | 0.00 | 0.00 | 51 | 1010.1 |
| 20260503181730 | 52 | 238 | 3.5 | 8.7 | 0.00 | 0.00 | 0.00 | 63 | 1009.9 |
| 20260503181559 | 52 | 303 | 2.6 | 0.0 | 0.00 | 0.00 | 0.00 | 64 | 1010.2 |
| 20260503180233 | 53 | 314 | 2.6 | 5.2 | 0.00 | 0.00 | 0.00 | 64 | 1010.0 |
| 20260503174749 | 54 | 317 | 2.6 | 7.8 | 0.00 | 0.00 | 0.00 | 67 | 1010.1 |
| 20260503174506 | 53 | 327 | 2.6 | 0.0 | 0.00 | 0.00 | 0.00 | 67 | 1010.4 |
| 20260503173232 | 52 | 313 | 0.9 | 6.1 | 0.00 | 0.00 | 0.00 | 68 | 1010.2 |
| 20260503173117 | 52 | 310 | 1.7 | 0.0 | 0.00 | 0.00 | 0.00 | 69 | 1010.5 |
| 20260503171725 | 51 | 327 | 2.6 | 7.8 | 0.00 | 0.01 | 0.00 | 70 | 1010.3 |
| 20260503171601 | 50 | 311 | 2.6 | 0.0 | 0.00 | 0.00 | 0.00 | 70 | 1010.7 |
| 20260503170223 | 50 | 325 | 1.7 | 8.7 | 0.00 | 0.01 | 0.00 | 72 | 1010.8 |
| 20260503150236 | 50 | 215 | 3.5 | 10.4 | 0.00 | 0.01 | 0.00 | 61 | 1011.5 |
| 20260503150114 | 50 | 223 | 3.5 | 0.0 | 0.00 | 0.00 | 0.00 | 61 | 1011.8 |
| 20260503140226 | 48 | 230 | 3.5 | 11.3 | 0.00 | 0.01 | 0.00 | 64 | 1012.0 |
| 20260503130218 | 45 | 219 | 5.2 | 8.7 | 0.00 | 0.01 | 0.00 | 66 | 1012.7 |
| 20260503120137 | 40 | 219 | 1.7 | 0.0 | 0.00 | 0.00 | 0.00 | 76 | 1013.1 |
| 20260503110225 | 35 | 221 | 0.0 | 3.5 | 0.00 | 0.01 | 0.00 | 87 | 1012.7 |
| 20260503100233 | 34 | 222 | 0.9 | 4.3 | 0.00 | 0.01 | 0.00 | 88 | 1012.5 |
| 20260503100106 | 34 | 222 | 1.7 | 0.0 | 0.00 | 0.00 | 0.00 | 88 | 1012.7 |
| 20260503090226 | 36 | 221 | 0.9 | 2.6 | 0.00 | 0.01 | 0.00 | 88 | 1012.4 |
| 20260503081620 | 36 | 221 | 1.7 | 0.0 | 0.00 | 0.00 | 0.00 | 87 | 1012.8 |
| 20260503080227 | 36 | 222 | 1.7 | 5.2 | 0.00 | 0.01 | 0.00 | 87 | 1012.5 |
| 20260503071723 | 37 | 223 | 0.9 | 5.2 | 0.00 | 0.01 | 0.00 | 86 | 1012.5 |
| 20260503071606 | 36 | 223 | 1.7 | 0.0 | 0.00 | 0.00 | 0.00 | 86 | 1012.8 |
| 20260503070235 | 37 | 222 | 1.7 | 5.2 | 0.00 | 0.01 | 0.00 | 87 | 1012.5 |
| 20260503060239 | 37 | 239 | 0.0 | 1.7 | 0.00 | 0.01 | 0.00 | 86 | 1012.8 |
| 20260503060143 | 37 | 239 | 0.0 | 0.0 | 0.00 | 0.00 | 0.00 | 86 | 1013.1 |
| 20260503054735 | 38 | 239 | 0.9 | 3.5 | 0.00 | 0.01 | 0.00 | 83 | 1012.8 |
| 20260503054600 | 38 | 239 | 0.0 | 0.0 | 0.00 | 0.00 | 0.00 | 83 | 1013.1 |